Regional Weather Roundup
Issued by NWS

Home | Current Version | Previous Version | Graphics & Text | Print | Product List | Glossary On
Versions: 1 2 3 4 5 6 7 8 9 10 11 12 13 14 15 16 17 18 19 20 21 22 23 24 25 26 27 28 29 30 31 32 33 34 35 36 37 38 39 40 41 42 43 44 45 46 47 48 49 50
000
ASUS45 KBOI 250410
RWRID
WEATHER ROUNDUP FOR IDAHO
NATIONAL WEATHER SERVICE BOISE ID
1000 PM MDT FRI APR 24 2015

NOTE: "FAIR" INDICATES FEW OR NO CLOUDS BELOW 12000 FEET
WITH NO SIGNIFICANT WEATHER AND/OR OBSTRUCTIONS TO VISIBILITY

IDZ012-014-250500-
SOUTHWEST IDAHO


CITY           SKY/WX    TMP DP  RH WIND       PRES   REMARKS
BOISE          MOCLDY    51  31  46 NW3       29.74R
CALDWELL       CLOUDY    52  30  43 NW18      29.77R
MOUNTAIN HOME  MOCLDY    47  29  48 W7        29.75R
$$

IDZ016-017-250500-
SOUTHCENTRAL IDAHO


CITY           SKY/WX    TMP DP  RH WIND       PRES   REMARKS
BURLEY         CLOUDY    45  35  68 SW14      29.75R
JEROME         CLOUDY    46  34  62 SW14      29.76R
TWIN FALLS     CLOUDY    46  34  62 S14       29.77R
$$

IDZ019>023-250500-
SOUTHEAST IDAHO


CITY           SKY/WX    TMP DP  RH WIND       PRES   REMARKS
IDAHO FALLS    CLOUDY    47  38  71 S18       29.71R
POCATELLO      CLOUDY    46  37  71 SW13      29.74R
REXBURG        CLOUDY    46  37  71 S14G24    29.70R
$$

IDZ006-010-011-018-031-032-250500-
CENTRAL IDAHO MOUNTAINS


CITY           SKY/WX    TMP DP  RH WIND       PRES   REMARKS
MCCALL         PTCLDY    37  28  70 NE7       29.75R WCI  32
HAILEY         CLOUDY    46  34  61 SE9       29.72R
STANLEY          N/A     36  27  69 CALM      29.75R
SALMON         CLOUDY    45  36  70 CALM      29.75R
CHALLIS        CLOUDY    41  31  67 NW7       29.74R
$$

IDZ002-004-006-007-026-250500-
NORTHERN IDAHO


CITY           SKY/WX    TMP DP  RH WIND       PRES   REMARKS
LEWISTON       MOCLDY    52  27  38 NW5       29.80R
LOWELL           N/A     43  41  93 CALM      29.85R
COEUR D`ALENE  MOCLDY    43  28  56 CALM      29.81S
MULLAN PASS    MOCLDY    29  20  69 NW3       29.78R
$$


USA.gov is the U.S. government's official web portal to all federal, state and local government web resources and services.